Weather History for Nome, AK

Change the Weather History Date:

Monday, October 3, 2011

  Actual Average Record
Temperature  
Mean Temperature 33 °F 35 °F  
Max Temperature 39 °F 41 °F 52 °F (1954)
Min Temperature 26 °F 29 °F 14 °F (1919)
Degree Days  
Heating Degree Days 32 30  
Month to date heating degree days 101 89  
Since 1 July heating degree days 1708 1619  
Cooling Degree Days 0    
Month to date cooling degree days 0  
Year to date cooling degree days 0  
Moisture  
Dew Point 23 °F    
Average Humidity 0    
Maximum Humidity 0    
Minimum Humidity 0    
Precipitation  
Precipitation 0.00 in 0.07 in 0.86 in (1916)
Month to date precipitation 0.00 0.20  
Year to date precipitation 14.24 13.10  
Snow  
Snow 0.00 in 0.10 in 2.00 in (1919)
Month to date snowfall 0.0 0.2  
Since 1 July snowfall 0.0 0.8  
Since 1 September snowfall 0.0 0.8  
Snow Depth 0.00 in    
Sea Level Pressure  
Sea Level Pressure 29.47 in    
Wind  
Wind Speed 3 mph (NNW)    
Max Wind Speed 7 mph    
Max Gust Speed 9 mph    
Visibility 10 miles    
Events      
T = Trace of Precipitation, MM = Missing Value Source: NWS Daily Summary

Daily Weather History Graph

Daily Weather History Graph

Search for Another Location

Airport:

Trip Planner

Search our weather history database for the weather conditions in past years. The results will help you decide how hot, cold, wet, or windy it might be!

Date:

Astronomy

Oct. 03, 2011 Rise Set
Actual Time 9:16 AM AKDT 8:23 PM AKDT
Civil Twilight 8:28 AM AKDT 9:11 PM AKDT
Nautical Twilight 7:31 AM AKDT 10:07 PM AKDT
Astronomical Twilight 6:30 AM AKDT 11:08 PM AKDT
Moon 6:34 PM AKDT (10/3) 11:35 PM AKDT (10/3)
Length of Visible Light 12h 42m
Length of Day
11h 06m
Waxing Crescent, 47% of the Moon is Illuminated
Oct 3
Waxing Crescent
Oct 3
First Quarter
Oct 11
Full
Oct 19
Last Quarter
Oct 26
New

Hourly Weather History & Observations

Time (AKDT) Temp. Windchill Dew Point Humidity Pressure Visibility Wind Dir Wind Speed Gust Speed Precip Events Conditions
12:53 AM 34.0 °F 31.0 °F 19.9 °F 56% 29.42 in 10.0 mi North 3.5 mph - N/A   Overcast
1:53 AM 34.0 °F 29.8 °F 19.9 °F 56% 29.42 in 10.0 mi NNE 4.6 mph - N/A   Mostly Cloudy
2:53 AM 30.9 °F 24.3 °F 21.0 °F 67% 29.42 in 10.0 mi NNW 6.9 mph - N/A   Overcast
3:53 AM 33.1 °F 26.1 °F 19.9 °F 59% 29.41 in 10.0 mi North 8.1 mph - N/A   Overcast
4:53 AM 28.9 °F 22.8 °F 19.9 °F 69% 29.41 in 10.0 mi North 5.8 mph - N/A   Clear
5:53 AM 28.9 °F 25.2 °F 21.0 °F 72% 29.41 in 10.0 mi North 3.5 mph - N/A   Clear
6:53 AM 28.9 °F 25.2 °F 21.0 °F 72% 29.41 in 10.0 mi NNW 3.5 mph - N/A   Clear
7:53 AM 28.0 °F 21.7 °F 21.0 °F 75% 29.41 in 10.0 mi North 5.8 mph - N/A   Partly Cloudy
8:53 AM 30.0 °F 24.1 °F 21.9 °F 72% 29.42 in 10.0 mi NNW 5.8 mph - N/A   Mostly Cloudy
9:53 AM 30.9 °F - 21.9 °F 69% 29.44 in 10.0 mi Calm Calm - N/A   Mostly Cloudy
10:54 AM 32.0 °F - 23.0 °F 69% 29.45 in - Calm Calm - N/A   Mostly Cloudy
11:53 AM 33.1 °F - 24.1 °F 70% 29.46 in 10.0 mi Calm Calm - N/A   Mostly Cloudy
12:53 PM 36.0 °F - 24.1 °F 62% 29.47 in 10.0 mi Calm Calm - N/A   Mostly Cloudy
1:53 PM 37.0 °F 34.5 °F 21.9 °F 54% 29.48 in 10.0 mi NNW 3.5 mph - N/A   Mostly Cloudy
2:53 PM 37.9 °F - 21.0 °F 51% 29.49 in 10.0 mi Calm Calm - N/A   Mostly Cloudy
3:53 PM 37.9 °F 34.4 °F 23.0 °F 55% 29.50 in 10.0 mi South 4.6 mph - N/A   Mostly Cloudy
4:53 PM 37.9 °F 35.5 °F 24.1 °F 57% 29.51 in 10.0 mi SW 3.5 mph - N/A   Overcast
5:53 PM 39.0 °F 34.8 °F 27.0 °F 62% 29.52 in 10.0 mi West 5.8 mph - N/A   Overcast
6:53 PM 39.0 °F 35.7 °F 28.9 °F 67% 29.53 in 10.0 mi West 4.6 mph - N/A   Overcast
7:53 PM 37.9 °F 33.5 °F 26.1 °F 62% 29.53 in 10.0 mi West 5.8 mph - N/A   Mostly Cloudy
8:53 PM 36.0 °F - 26.1 °F 67% 29.55 in 10.0 mi Calm Calm - N/A   Mostly Cloudy
9:53 PM 36.0 °F 33.3 °F 25.0 °F 64% 29.56 in 10.0 mi NNE 3.5 mph - N/A   Mostly Cloudy
10:53 PM 33.1 °F - 27.0 °F 78% 29.57 in 10.0 mi Calm Calm - N/A   Overcast
11:53 PM 35.1 °F 29.3 °F 26.1 °F 70% 29.58 in 10.0 mi East 6.9 mph - N/A   Overcast